Location: Newark
(49.8969°N, 3.3422°E)
Time: 16:54:14
(UTC+00:00)

deb Explorer IX - All Passes

Search period start: 19 January 2020 00:00
Search period end: 29 January 2020 00:00
Orbit: 548 x 1101 km, 38.8° (Epoch: 19 January)

Date Brightness Start Highest point End Pass type
(mag) Time Alt. Az. Time Alt. Az. Time Alt. Az.
19 Jan - 01:34:57 10° SW 01:41:01 31° S 01:46:34 10° ESE night (unlit)
19 Jan - 03:21:47 10° WSW 03:27:22 28° SSW 03:32:25 10° SE visible
19 Jan - 05:10:07 10° WSW 05:13:16 14° SSW 05:16:12 10° S visible
19 Jan - 23:27:07 10° SSW 23:32:17 21° SSE 23:37:15 10° ESE night (unlit)
20 Jan - 01:12:28 10° SW 01:18:37 31° S 01:24:20 10° ESE night (unlit)
20 Jan - 02:59:16 10° WSW 03:05:01 28° SSW 03:10:12 10° SE visible
20 Jan - 04:47:35 10° WSW 04:50:56 15° SSW 04:54:04 10° S visible
20 Jan - 23:04:38 10° SSW 23:09:51 21° SSE 23:14:57 10° ESE night (unlit)
21 Jan - 00:49:58 10° SW 00:56:12 32° S 01:02:03 10° ESE night (unlit)
21 Jan - 02:36:46 10° WSW 02:42:38 29° SSW 02:47:59 10° SE visible
21 Jan - 04:25:02 10° WSW 04:28:34 15° SSW 04:31:54 10° S visible
21 Jan - 22:42:09 10° SSW 22:47:25 22° SSE 22:52:37 10° ESE night (unlit)
22 Jan - 00:27:29 10° SW 00:33:47 32° S 00:39:45 10° ESE night (unlit)
22 Jan - 02:14:16 10° WSW 02:20:14 29° SSW 02:25:43 10° SE night (unlit)
22 Jan - 04:02:30 10° WSW 04:06:12 15° SSW 04:09:42 10° S visible
22 Jan - 22:19:41 10° SSW 22:24:59 22° SSE 22:30:15 10° ESE night (unlit)
23 Jan - 00:05:01 10° SW 00:11:21 33° S 00:17:26 10° ESE night (unlit)
23 Jan - 01:51:46 10° WSW 01:57:49 30° SSW 02:03:26 10° SE night (unlit)
23 Jan - 03:39:57 10° WSW 03:43:49 16° SSW 03:47:28 10° S visible
23 Jan - 21:57:14 10° SSW 22:02:32 22° SSE 22:07:52 10° ESE night (unlit)
23 Jan - 23:42:32 10° SW 23:48:53 33° S 23:55:04 10° ESE night (unlit)
24 Jan - 01:29:16 10° WSW 01:35:23 30° SSW 01:41:08 10° SE night (unlit)
24 Jan - 03:17:25 10° WSW 03:21:25 16° SSW 03:25:12 10° S night (unlit)
24 Jan - 21:34:49 10° SSW 21:40:05 22° SSE 21:45:27 10° ESE night (unlit)
24 Jan - 23:20:05 10° SW 23:26:26 33° S 23:32:41 10° ESE night (unlit)
25 Jan - 01:06:47 10° WSW 01:12:55 30° SSW 01:18:47 10° SE night (unlit)
25 Jan - 02:54:54 10° WSW 02:59:00 16° SSW 03:02:54 10° S night (unlit)
25 Jan - 21:12:23 10° SSW 21:17:37 22° SSE 21:22:59 10° ESE night (unlit)
25 Jan - 22:57:39 10° SW 23:03:58 33° S 23:10:17 10° ESE night (unlit)
26 Jan - 00:44:18 10° WSW 00:50:29 30° SSW 00:56:26 10° SE night (unlit)
26 Jan - 02:32:23 10° WSW 02:36:34 17° SSW 02:40:35 10° S night (unlit)
26 Jan - 20:50:00 10° SSW 20:55:10 22° SSE 21:00:31 10° ESE visible
26 Jan - 22:35:13 10° SW 22:41:29 33° S 22:47:51 10° ESE night (unlit)
27 Jan - 00:21:50 10° WSW 00:28:00 30° SSW 00:34:02 10° SE night (unlit)
27 Jan - 02:09:53 10° WSW 02:14:07 17° SSW 02:18:13 10° S night (unlit)
27 Jan - 20:27:37 10° SSW 20:32:42 22° SSE 20:38:01 10° ESE visible
27 Jan - 22:12:48 10° SW 22:19:00 33° S 22:25:23 10° ESE night (unlit)
27 Jan - 23:59:22 10° WSW 00:05:32 30° SSW 00:11:37 10° SE night (unlit)
28 Jan - 01:47:23 10° WSW 01:51:40 17° SSW 01:55:50 10° S night (unlit)
28 Jan - 20:05:16 10° SSW 20:10:14 22° SSE 20:15:30 10° ESE visible
28 Jan - 21:50:24 10° SW 21:56:31 33° S 22:02:54 10° ESE night (unlit)
28 Jan - 23:36:56 10° WSW 23:43:02 30° SSW 23:49:09 10° SE night (unlit)
